sat.trackr.live / text

‹ back to catalog

STARLINK-5384

NORAD 54836 · 2022-177S

PAYLOAD ACTIVE UNKNOWN

§ Identity

Operator
Country
US
Launch date
2022-12-28
Launch site
AFETR
Launch vehicle
Mass (kg)
RCS (m²)

Purposes: comms

External: N2YO · Heavens-Above · Gunter

§ Orbital elements

Epoch: 2026-06-03T12:38:27.006144Z

Period
87.76 min
Inclination
42.9897°
Eccentricity
0.0008135
Mean motion
16.40760283 rev/d
Perigee alt
158.5 km
Apogee alt
169.1 km
Semi-major
6,541.9 km
B*
5.2509e-4
RAAN
334.2056°
Arg perigee
282.2709°
Mean anomaly
77.7273°
Rev number
19,048

§ Raw data

STARLINK-53841 54836U 22177S   26154.52670146  .08274357  93516-5  52509-3 0  99932 54836  42.9897 334.2056 0008135 282.2709  77.7273 16.40760283190489

JSON: /api/v1/satellites/54836 · /tle

For live sub-satellite position, see the globe view (requires WebGL).

§ Visibility from observer

Set your observer location to see the next 7 days of passes ≥ 10°. The values pass through the URL so the page stays shareable.

No JS? Fill the form by hand. The geolocation button needs JavaScript.